Regional Weather Roundup
Issued by NWS

Home | Current Version | Previous Version | Graphics & Text | Print | Product List | Glossary On
Versions: 1 2 3 4 5 6 7 8 9 10 11 12 13 14 15 16 17 18 19 20 21 22 23 24 25 26 27 28 29 30 31 32 33 34 35 36 37 38 39 40 41 42 43 44 45 46 47 48 49 50
000
ASUS43 KLSX 301110
RWRMO

WEATHER SUMMARY FOR MISSOURI
NATIONAL WEATHER SERVICE SPRINGFIELD MO
600 AM CDT SAT JUL 30 2016

NOTE: "FAIR" INDICATES FEW OR NO CLOUDS BELOW 12,000 FEET WITH NO
       SIGNIFICANT WEATHER AND/OR OBSTRUCTIONS TO VISIBILITY.
       CURRENT SKY AND/OR WEATHER CONDITIONS ARE NOT AVAILABLE FOR
       CHILLICOTHE AND FARMINGTON.

MOZ001>031-035>038-043-044-053-054-301200-
...NORTHERN AND WESTERN MISSOURI...

CITY           SKY/WX    TMP DP  RH WIND       PRES   REMARKS
KANSAS CTY INT PTCLDY    63  60  90 NE5       30.00F
KANSAS C DTWN  CLEAR     68  63  84 N3        30.00R
LEE`S SUMMIT   PTCLDY    67  63  87 N3        30.02R
ST JOSEPH      MOCLDY    61  60  97 N3        30.02R FOG
CHILLICOTHE      N/A     63  61  93 CALM      30.01R
KIRKSVILLE     CLOUDY    66  64  93 NW3       30.00S

$$
MOZ066>068-077>081-088>096-101>105-301200-
...SOUTHWEST MISSOURI...

CITY           SKY/WX    TMP DP  RH WIND       PRES   REMARKS
SPRINGFIELD    CLEAR     68  66  93 CALM      30.00R FOG
JOPLIN         CLEAR     68  67  96 CALM      30.00R
BRANSON        MOCLDY    68  68 100 CALM      30.02R FOG

$$
MOZ032>034-039>042-045>050-055>058-069>072-301200-
...CENTRAL MISSOURI...

CITY           SKY/WX    TMP DP  RH WIND       PRES   REMARKS
COLUMBIA       CLOUDY    69  66  90 CALM      30.00R
JEFFERSON CITY PTCLDY    67  66  97 CALM      29.98R
ROLLA          CLEAR     65  64  97 CALM      29.99R
SEDALIA        CLEAR     65  63  93 NW5       30.01R
WHITEMAN AFB   CLEAR     63  63 100 NE1       29.99S
OSAGE BEACH    FOG       68  68 100 CALM      30.00S VSB<1/4

$$
MOZ051-052-059>065-301200-
...EAST CENTRAL MISSOURI...

CITY           SKY/WX    TMP DP  RH WIND       PRES   REMARKS
ST LOUIS INTL  PTCLDY    72  67  84 W5        29.97R
SPIRIT OF STL  CLEAR     67  67 100 SW3       29.96R
ST CHARLES     CLEAR     69  68  96 W3        29.96R

$$
MOZ072>076-082>087-097>100-106>115-301200-
...SOUTH CENTRAL AND SOUTHEAST MISSOURI...

CITY           SKY/WX    TMP DP  RH WIND       PRES   REMARKS
CAPE GIRARDEAU FOG       70  69  97 SW5       29.95R VSB 1/2
FARMINGTON     CLEAR     69  69 100 CALM      29.99R FOG
POPLAR BLUFF   CLOUDY    71  70  96 CALM      29.96R
WEST PLAINS    CLOUDY    68  66  93 CALM      30.02R

$$




USA.gov is the U.S. government's official web portal to all federal, state and local government web resources and services.